NIMBUS 2 DEB, 37889

Orbit data source: Space-Track

NIMBUS 2 DEB, 37889 is space debris in SSO originally from a launch on Sun, 15 May 1966 UTC launched from the Air Force Western Test Range (AFWTR). Debris objects in space refer to the collection of defunct objects orbiting the Earth. Examples of debris include non-operational satellites, rocket bodies, and fragments generated from explosions, collisions, or faulty payload assembly.

Loading next visibility...
Identifier
37889, 1966-040AU
Orbit
SSO
Country
Flag of USUS
Related business
Manufacturer
Unknown
Mission
Spacecraft
Bus & Motor
Unknown
Mass
Unknown
Launch date (UTC)
1966-05-15 (60 years ago)
Launch vehicle
Unknown
Launch site
Air Force Western Test Range (AFWTR)
Object type
Payload
Rocket body
Debris
Shape & HBR
Unknown shape, 0.1 m
Radar Cross Section
Small (<0.1 m²)

Expand to show TLE details & history
Last TLE update: 8 hours ago

TLE from 8 hours ago
0 NIMBUS 2 DEB
1 37889U 66040AU  26121.51998293  .00002222  00000-0  33891-2 0  9993
2 37889 100.5524 136.5085 0051091 286.5331 228.7821 13.52787335805812
Epoch: 2026-05-01T12:28Z
TLE epoch observation values (Epoch: 2026-05-01T12:28:46.525Z)
Latitude
24.69756°
Longitude
-85.24699°
Altitude
1,090.03 km
Speed
7.297 km/s
True Right ascension
21h 25m 35s
True Declination
24° 34' 23"
Sunlit
Object was in daylight at epoch
Visualization orbit readout
Latitude
Unknown
Longitude
Unknown
Altitude
Unknown
Speed
Unknown
Apparent Right ascension
Unknown
Apparent Declination
Unknown
Sunlit
N/A
Visualization observer readout
Local Sidereal Time
04:26:51
Azimuth
Unknown
Elevation
Unknown
Doppler factor
Unknown
Orbital elements
Apogee altitude
1,097.363 km
Perigee altitude
1,021.365 km
Semi-major axis
7,437.501 km
Eccentricity
0.00511
Inclination
100.5524°
RAAN
136.5085°
Arg. of periapsis
286.5331°
True anomaly
228.34356°
Mean anomaly
228.7821°
Eccentric anomaly
228.56265°
Mean motion
3.38378 °/min
Orbital period
106.39 mins
BSTAR
0.0033891
Loading maneuver chart data...
Computing Atmospheric mass density...
Loading historical data...
Loading historical data...
Loading historical data...
Loading historical data...
Loading historical data...
Loading historical data...
Loading historical data...

Documentation

Showing up to 5 results
|